• In Uzbekistan
  • List of Countries
  • For 7 days
  • Water Temperature
  • Satellite Maps
  • Weather Map
  • Weather Widgets
  • user-avatar
    Login

    Hourly Weather Akhaltsikhe

    Today, 19 August, Saturday

    Time Temperature Precipitation Wind Pressure Humidity
    00:00 +17°C° 0 mm 2 mps 651 mmHg 82%
    01:00 +17°C° 0 mm 2 mps 651 mmHg 80%
    02:00 +17°C° 0 mm 2 mps 651 mmHg 79%
    03:00 +18°C° 0 mm 1 mps 651 mmHg 76%
    04:00 +17°C° 0 mm 2 mps 651 mmHg 75%
    05:00 +17°C° 0 mm 2 mps 651 mmHg 75%
    06:00 +17°C° 0 mm 2 mps 651 mmHg 74%
    07:00 +19°C° 0 mm 2 mps 652 mmHg 68%
    08:00 +23°C° 0 mm 2 mps 652 mmHg 61%
    09:00 +25°C° 0 mm 2 mps 653 mmHg 54%
    10:00 +26°C° 0.1 mm 2 mps 653 mmHg 51%
    11:00 +27°C° 0.1 mm 2 mps 653 mmHg 47%
    12:00 +29°C° 0.1 mm 2 mps 653 mmHg 43%
    13:00 +29°C° 0.3 mm 2 mps 653 mmHg 45%
    14:00 +28°C° 0.3 mm 2 mps 653 mmHg 47%
    15:00 +28°C° 0.3 mm 2 mps 652 mmHg 49%
    16:00 +27°C° 0.3 mm 2 mps 652 mmHg 54%
    17:00 +26°C° 0.3 mm 2 mps 652 mmHg 59%
    18:00 +25°C° 0.3 mm 2 mps 652 mmHg 63%
    19:00 +23°C° 0.1 mm 2 mps 652 mmHg 70%
    20:00 +20°C° 0.1 mm 2 mps 652 mmHg 76%
    21:00 +19°C° 0.1 mm 1 mps 651 mmHg 82%
    22:00 +17°C° 0 mm 2 mps 651 mmHg 80%
    23:00 +17°C° 0 mm 2 mps 652 mmHg 79%

    Tomorrow, 20 August, Sunday

    Time Temperature Precipitation Wind Pressure Humidity
    00:00 +17°C° 0 mm 2 mps 652 mmHg 78%
    01:00 +16°C° 0 mm 2 mps 651 mmHg 76%
    02:00 +16°C° 0 mm 2 mps 651 mmHg 74%
    03:00 +16°C° 0 mm 2 mps 651 mmHg 73%
    04:00 +16°C° 0 mm 2 mps 651 mmHg 72%
    05:00 +15°C° 0 mm 2 mps 651 mmHg 71%
    06:00 +15°C° 0 mm 2 mps 651 mmHg 70%
    07:00 +18°C° 0 mm 2 mps 652 mmHg 62%
    08:00 +21°C° 0 mm 2 mps 652 mmHg 53%
    09:00 +25°C° 0 mm 2 mps 653 mmHg 45%
    10:00 +27°C° 0 mm 2 mps 653 mmHg 41%
    11:00 +29°C° 0 mm 2 mps 653 mmHg 38%
    12:00 +30°C° 0 mm 2 mps 653 mmHg 34%
    13:00 +30°C° 0 mm 2 mps 653 mmHg 35%
    14:00 +30°C° 0 mm 3 mps 653 mmHg 35%
    15:00 +30°C° 0 mm 3 mps 652 mmHg 36%
    16:00 +28°C° 0 mm 3 mps 652 mmHg 42%
    17:00 +27°C° 0 mm 2 mps 651 mmHg 48%
    18:00 +25°C° 0 mm 2 mps 651 mmHg 54%
    19:00 +23°C° 0 mm 2 mps 651 mmHg 59%
    20:00 +20°C° 0 mm 2 mps 651 mmHg 63%
    21:00 +19°C° 0 mm 1 mps 651 mmHg 67%
    22:00 +17°C° 0 mm 2 mps 651 mmHg 65%
    23:00 +17°C° 0 mm 2 mps 651 mmHg 63%

    Day after tomorrow, 21 August, Monday

    Time Temperature Precipitation Wind Pressure Humidity
    00:00 +17°C° 0 mm 2 mps 651 mmHg 61%
    01:00 +16°C° 0 mm 2 mps 650 mmHg 60%
    02:00 +16°C° 0 mm 2 mps 650 mmHg 58%
    03:00 +16°C° 0 mm 2 mps 650 mmHg 57%
    04:00 +16°C° 0 mm 2 mps 650 mmHg 58%
    05:00 +15°C° 0 mm 2 mps 650 mmHg 58%
    06:00 +15°C° 0 mm 2 mps 650 mmHg 59%
    07:00 +18°C° 0 mm 2 mps 650 mmHg 52%
    08:00 +23°C° 0 mm 2 mps 651 mmHg 46%
    09:00 +26°C° 0 mm 2 mps 652 mmHg 40%
    10:00 +28°C° 0 mm 2 mps 652 mmHg 36%
    11:00 +29°C° 0 mm 2 mps 652 mmHg 31%
    12:00 +31°C° 0 mm 2 mps 652 mmHg 27%
    13:00 +32°C° 0 mm 2 mps 652 mmHg 26%
    14:00 +32°C° 0 mm 2 mps 652 mmHg 25%
    15:00 +32°C° 0 mm 2 mps 651 mmHg 24%
    16:00 +31°C° 0 mm 2 mps 651 mmHg 31%
    17:00 +29°C° 0 mm 2 mps 650 mmHg 38%
    18:00 +27°C° 0 mm 2 mps 649 mmHg 46%
    19:00 +25°C° 0 mm 2 mps 649 mmHg 49%
    20:00 +23°C° 0 mm 2 mps 649 mmHg 53%
    21:00 +20°C° 0 mm 2 mps 649 mmHg 57%
    22:00 +19°C° 0 mm 2 mps 649 mmHg 57%
    23:00 +19°C° 0 mm 2 mps 649 mmHg 56%

    22 August, Tuesday

    Time Temperature Precipitation Wind Pressure Humidity
    00:00 +18°C° 0 mm 3 mps 649 mmHg 55%
    01:00 +18°C° 0 mm 3 mps 648 mmHg 55%
    02:00 +17°C° 0 mm 3 mps 648 mmHg 55%
    03:00 +17°C° 0 mm 2 mps 648 mmHg 54%
    04:00 +17°C° 0 mm 2 mps 648 mmHg 55%
    05:00 +17°C° 0 mm 2 mps 648 mmHg 56%
    06:00 +16°C° 0 mm 2 mps 648 mmHg 57%
    07:00 +20°C° 0 mm 2 mps 649 mmHg 50%
    08:00 +24°C° 0 mm 2 mps 650 mmHg 44%
    09:00 +27°C° 0 mm 2 mps 651 mmHg 37%
    10:00 +28°C° 0 mm 2 mps 651 mmHg 35%
    11:00 +30°C° 0 mm 2 mps 651 mmHg 32%
    12:00 +31°C° 0 mm 2 mps 651 mmHg 29%
    13:00 +31°C° 0 mm 2 mps 651 mmHg 31%
    14:00 +31°C° 0 mm 3 mps 651 mmHg 33%
    15:00 +31°C° 0 mm 3 mps 650 mmHg 34%
    16:00 +29°C° 0 mm 3 mps 650 mmHg 43%
    17:00 +27°C° 0 mm 3 mps 650 mmHg 51%
    18:00 +25°C° 0 mm 2 mps 649 mmHg 60%
    19:00 +23°C° 0 mm 2 mps 649 mmHg 69%
    20:00 +21°C° 0 mm 1 mps 649 mmHg 78%
    21:00 +19°C° 0 mm 1 mps 649 mmHg 86%
    22:00 +19°C° 0 mm 1 mps 649 mmHg 86%
    23:00 +19°C° 0 mm 1 mps 649 mmHg 85%

    23 August, Wednesday

    Time Temperature Precipitation Wind Pressure Humidity
    00:00 +18°C° 0 mm 1 mps 649 mmHg 84%
    01:00 +18°C° 0 mm 1 mps 649 mmHg 83%
    02:00 +16°C° 0 mm 1 mps 649 mmHg 82%
    03:00 +16°C° 0 mm 1 mps 649 mmHg 81%
    04:00 +16°C° 0 mm 1 mps 649 mmHg 80%
    05:00 +16°C° 0 mm 1 mps 649 mmHg 79%
    06:00 +16°C° 0 mm 1 mps 650 mmHg 79%
    07:00 +19°C° 0 mm 1 mps 650 mmHg 70%
    08:00 +22°C° 0 mm 1 mps 651 mmHg 62%
    09:00 +25°C° 0 mm 1 mps 652 mmHg 54%
    10:00 +26°C° 0 mm 2 mps 652 mmHg 51%
    11:00 +27°C° 0 mm 2 mps 652 mmHg 48%
    12:00 +28°C° 0 mm 2 mps 653 mmHg 45%
    13:00 +28°C° 0.1 mm 3 mps 653 mmHg 48%
    14:00 +27°C° 0.1 mm 3 mps 653 mmHg 51%
    15:00 +27°C° 0.1 mm 4 mps 652 mmHg 54%
    16:00 +25°C° 0.1 mm 3 mps 652 mmHg 62%
    17:00 +24°C° 0.1 mm 3 mps 652 mmHg 71%
    18:00 +21°C° 0.1 mm 3 mps 652 mmHg 79%
    19:00 +20°C° 0.1 mm 2 mps 653 mmHg 85%
    20:00 +19°C° 0.1 mm 2 mps 653 mmHg 91%
    21:00 +19°C° 0.1 mm 1 mps 653 mmHg 97%
    22:00 +18°C° 0.1 mm 1 mps 653 mmHg 97%
    23:00 +18°C° 0.1 mm 1 mps 654 mmHg 97%

    24 August, Thursday

    Time Temperature Precipitation Wind Pressure Humidity
    00:00 +18°C° 0.1 mm 1 mps 654 mmHg 97%
    01:00 +18°C° 0 mm 1 mps 653 mmHg 96%
    02:00 +18°C° 0 mm 1 mps 653 mmHg 96%
    03:00 +16°C° 0 mm 1 mps 653 mmHg 96%
    04:00 +16°C° 0 mm 1 mps 653 mmHg 95%
    05:00 +16°C° 0 mm 1 mps 653 mmHg 93%
    06:00 +16°C° 0 mm 1 mps 653 mmHg 92%
    07:00 +19°C° 0 mm 1 mps 653 mmHg 81%
    08:00 +21°C° 0 mm 1 mps 654 mmHg 70%
    09:00 +24°C° 0 mm 1 mps 655 mmHg 59%
    10:00 +25°C° 0 mm 1 mps 655 mmHg 53%
    11:00 +27°C° 0 mm 2 mps 655 mmHg 48%
    12:00 +28°C° 0 mm 2 mps 655 mmHg 42%
    13:00 +28°C° 0 mm 3 mps 655 mmHg 42%
    14:00 +28°C° 0 mm 3 mps 655 mmHg 43%
    15:00 +28°C° 0 mm 3 mps 655 mmHg 44%
    16:00 +27°C° 0 mm 3 mps 654 mmHg 51%
    17:00 +25°C° 0 mm 3 mps 654 mmHg 59%
    18:00 +23°C° 0 mm 2 mps 654 mmHg 66%
    19:00 +21°C° 0 mm 2 mps 654 mmHg 74%
    20:00 +19°C° 0 mm 2 mps 654 mmHg 81%
    21:00 +18°C° 0 mm 1 mps 654 mmHg 89%
    22:00 +18°C° 0 mm 1 mps 654 mmHg 88%
    23:00 +18°C° 0 mm 1 mps 654 mmHg 88%
    Show more